User: anonymous   Login
Location: Bishopstone
(51.0167°N, 1.9000°W)
Time: 11:19:21
(UTC+00:00)
Language:

VELOX 1 - Orbit

View from above orbital plane
View from above orbital plane
View from above satellite
View from above satellite

Ground track
Ground track

The orbit data is extracted from the following two-line orbital elements,

1 40057U 14034E   20019.19016584  .00000204  00000-0  36130-4 0  9997
2 40057  98.2579 152.2549 0009628 265.6750  94.3359 14.77784818299448
Epoch (UTC): 19 January 2020 04:33:50
Eccentricity: 0.0009628
inclination: 98.2579°
perigee height: 629 km
apogee height: 643 km
right ascension of ascending node: 152.2549°
argument of perigee: 265.6750°
revolutions per day: 14.77784818
mean anomaly at epoch: 94.3359°
orbit number at epoch: 29944

The dashed part of the orbit path shows where the satellite is in the earth's shadow,  

DLR